Hourly Data Report for October 15, 2015

All times are specified in Local Standard Time (LST). Add 1 hour to adjust for Daylight Saving Time where and when it is observed.

PETAWAWA AWOS 2
ONTARIO

45°57'00.000" N
77°19'00.000" W
130.10 m
6106396
71625
YWA

Download Data

Hourly Data (October 2015)
Hourly Data Report for October 15, 2015
Temp Definition
°C
Dew Point Temp Definition
°C
Rel Hum Definition
%
Wind Dir Definition
10's deg

Wind Spd Definition
km/h
Visibility Definition
km
Stn Press Definition
kPa
Hmdx Definition


Wind Chill Definition


Weather Definition


TIME
00:00 2.5 0.8 88   0 14.5 99.41     LegendNANA
01:00 4.9 1.8 80 16 6 14.5 99.37     LegendNANA
02:00 5.6 2.2 79 14 6 14.5 99.31     Rain
03:00 6.1 3.4 83 12 9 14.5 99.25     LegendNANA
04:00 2.5 1.8 95   0 14.5 99.25     LegendNANA
05:00 3.7 2.6 92   0 14.5 99.28     LegendNANA
06:00 3.4 2.7 95 18 9 14.5 99.23     LegendNANA
07:00 7.2 6.2 93 14 4 14.5 99.24     Drizzle
08:00 7.5 6.5 93 15 6 14.5 99.27     LegendNANA
09:00 9.2 7.4 88   0 14.5 99.29     LegendNANA
10:00 11.3 6.6 73 24 9 14.5 99.29     LegendNANA
11:00 13.2 7.6 69 23 7 14.5 99.24     LegendNANA
12:00 14.1 6.8 61 22 7 14.5 99.13     LegendNANA
13:00 13.0 5.4 60 27 13 14.5 99.08     LegendNANA
14:00 8.3 7.1 92 24 11 4.0 99.18     LegendNANA
15:00 8.4 7.2 92 29 4 14.5 99.15     Rain
16:00 7.8 6.6 92 14 7 3.2 99.05     Moderate Rain
17:00 8.3 7.7 96 12 11 14.5 98.94     Rain
18:00 8.6 7.9 95 5 7 14.5 98.91     LegendNANA
19:00 8.2 7.3 94 20 9 14.5 98.84     Drizzle
20:00 6.8 4.8 87 33 35 14.5 98.86     Drizzle
21:00 6.2 4.6 90 29 13 14.5 99.08     Drizzle
22:00 5.9 4.8 93 28 13 14.5 99.13     Drizzle
23:00 5.7 4.4 91 30 13 14.5 99.15     Drizzle

Notes on Data Quality.

Legend

  • E = Estimated
  • M = Missing
  • NA = Not Available
  • ‡ = Partner data that is not subject to review by the National Climate Archives
Date modified: